• In Uzbekistan
  • List of Countries
  • For 7 days
  • Water Temperature
  • Weather Map
  • Weather Widgets
  • user-avatar
    Login

    Hourly Weather Muyinga

    Today, 12 December, Thursday

    Time Temperature Precipitation Wind Pressure Humidity
    00:00 +16°C° 0.8 mm 1 mps 627 mmHg 96%
    01:00 +14°C° 0.8 mm 0 mps 627 mmHg 97%
    02:00 +14°C° 0 mm 0 mps 627 mmHg 96%
    03:00 +14°C° 0.5 mm 0 mps 627 mmHg 96%
    04:00 +14°C° 0.5 mm 0 mps 626 mmHg 96%
    05:00 +13°C° 0.5 mm 0 mps 626 mmHg 96%
    06:00 +15°C° 0.1 mm 0 mps 627 mmHg 94%
    07:00 +16°C° 0.1 mm 0 mps 629 mmHg 92%
    08:00 +18°C° 0.1 mm 0 mps 630 mmHg 90%
    09:00 +19°C° 1.1 mm 0 mps 630 mmHg 87%
    10:00 +21°C° 1.1 mm 0 mps 629 mmHg 84%
    11:00 +23°C° 1.1 mm 0 mps 629 mmHg 80%
    12:00 +22°C° 1.6 mm 0 mps 629 mmHg 80%
    13:00 +24°C° 1.6 mm 1 mps 628 mmHg 80%
    14:00 +24°C° 1.6 mm 1 mps 627 mmHg 80%
    15:00 +23°C° 1 mm 1 mps 627 mmHg 83%
    16:00 +23°C° 1 mm 1 mps 627 mmHg 86%
    17:00 +22°C° 1 mm 1 mps 626 mmHg 89%
    18:00 +19°C° 1.6 mm 0 mps 627 mmHg 90%
    19:00 +18°C° 1.6 mm 0 mps 627 mmHg 91%
    20:00 +16°C° 1.6 mm 0 mps 627 mmHg 91%
    21:00 +16°C° 0.3 mm 0 mps 627 mmHg 91%
    22:00 +16°C° 0.3 mm 0 mps 627 mmHg 92%
    23:00 +15°C° 0.3 mm 0 mps 627 mmHg 92%

    Tomorrow, 13 December, Friday

    Time Temperature Precipitation Wind Pressure Humidity
    00:00 +15°C° 0.6 mm 0 mps 627 mmHg 93%
    01:00 +15°C° 0.6 mm 0 mps 627 mmHg 94%
    02:00 +15°C° 0.6 mm 1 mps 626 mmHg 95%
    03:00 +14°C° 0.4 mm 0 mps 626 mmHg 95%
    04:00 +14°C° 0.4 mm 0 mps 627 mmHg 95%
    05:00 +14°C° 0.4 mm 0 mps 627 mmHg 95%
    06:00 +15°C° 0.1 mm 0 mps 628 mmHg 94%
    07:00 +17°C° 0.1 mm 0 mps 628 mmHg 92%
    08:00 +18°C° 0.1 mm 0 mps 629 mmHg 91%
    09:00 +21°C° 1 mm 1 mps 629 mmHg 88%
    10:00 +22°C° 1 mm 1 mps 629 mmHg 86%
    11:00 +23°C° 1 mm 2 mps 629 mmHg 83%
    12:00 +23°C° 1 mm 2 mps 629 mmHg 82%
    13:00 +23°C° 1 mm 1 mps 628 mmHg 81%
    14:00 +23°C° 1 mm 1 mps 627 mmHg 80%
    15:00 +23°C° 1.7 mm 1 mps 627 mmHg 83%
    16:00 +21°C° 1.7 mm 0 mps 627 mmHg 86%
    17:00 +21°C° 1.7 mm 0 mps 627 mmHg 90%
    18:00 +19°C° 0.4 mm 0 mps 627 mmHg 90%
    19:00 +18°C° 0.4 mm 0 mps 627 mmHg 90%
    20:00 +16°C° 0.4 mm 0 mps 627 mmHg 90%
    21:00 +16°C° 0.1 mm 0 mps 627 mmHg 91%
    22:00 +15°C° 0.1 mm 0 mps 627 mmHg 92%
    23:00 +15°C° 0.1 mm 0 mps 627 mmHg 93%

    Day after tomorrow, 14 December, Saturday

    Time Temperature Precipitation Wind Pressure Humidity
    00:00 +15°C° 0 mm 0 mps 627 mmHg 93%
    01:00 +15°C° 0 mm 0 mps 627 mmHg 93%
    02:00 +14°C° 0 mm 0 mps 626 mmHg 93%
    03:00 +14°C° 0 mm 0 mps 627 mmHg 93%
    04:00 +14°C° 0 mm 0 mps 627 mmHg 93%
    05:00 +15°C° 0 mm 0 mps 627 mmHg 93%
    06:00 +16°C° 0 mm 0 mps 628 mmHg 91%
    07:00 +17°C° 0 mm 0 mps 629 mmHg 89%
    08:00 +19°C° 0 mm 0 mps 630 mmHg 87%
    09:00 +19°C° 0.8 mm 0 mps 630 mmHg 86%
    10:00 +22°C° 0.8 mm 1 mps 629 mmHg 85%
    11:00 +21°C° 0.8 mm 2 mps 629 mmHg 84%
    12:00 +23°C° 1.4 mm 1 mps 629 mmHg 82%
    13:00 +24°C° 1.4 mm 1 mps 628 mmHg 79%
    14:00 +23°C° 1.4 mm 0 mps 628 mmHg 77%
    15:00 +22°C° 1.7 mm 0 mps 628 mmHg 80%
    16:00 +24°C° 1.7 mm 1 mps 627 mmHg 83%
    17:00 +23°C° 1.7 mm 1 mps 627 mmHg 87%
    18:00 +19°C° 0.6 mm 0 mps 627 mmHg 88%
    19:00 +18°C° 0.6 mm 0 mps 627 mmHg 90%
    20:00 +16°C° 0.6 mm 0 mps 627 mmHg 91%
    21:00 +16°C° 1 mm 0 mps 627 mmHg 92%
    22:00 +16°C° 1 mm 0 mps 627 mmHg 93%
    23:00 +15°C° 1 mm 0 mps 628 mmHg 94%

    15 December, Sunday

    Time Temperature Precipitation Wind Pressure Humidity
    00:00 +15°C° 0.4 mm 0 mps 627 mmHg 94%
    01:00 +15°C° 0.4 mm 0 mps 627 mmHg 94%
    02:00 +15°C° 0.4 mm 0 mps 627 mmHg 94%
    03:00 +15°C° 0.1 mm 0 mps 627 mmHg 95%
    04:00 +14°C° 0.1 mm 0 mps 627 mmHg 95%
    05:00 +14°C° 0.1 mm 0 mps 627 mmHg 95%
    06:00 +15°C° 0.1 mm 0 mps 627 mmHg 93%
    07:00 +17°C° 0.1 mm 0 mps 628 mmHg 91%
    08:00 +19°C° 0.1 mm 0 mps 629 mmHg 89%
    09:00 +20°C° 0.7 mm 0 mps 629 mmHg 83%
    10:00 +23°C° 0.7 mm 1 mps 629 mmHg 76%
    11:00 +25°C° 0.7 mm 1 mps 629 mmHg 70%
    12:00 +25°C° 0.9 mm 1 mps 628 mmHg 73%
    13:00 +24°C° 0.9 mm 1 mps 628 mmHg 76%
    14:00 +24°C° 0.9 mm 1 mps 627 mmHg 79%
    15:00 +24°C° 0.9 mm 1 mps 627 mmHg 83%
    16:00 +23°C° 0.9 mm 1 mps 627 mmHg 86%
    17:00 +23°C° 0.9 mm 1 mps 626 mmHg 90%
    18:00 +21°C° 0.4 mm 1 mps 626 mmHg 91%
    19:00 +18°C° 0.4 mm 0 mps 627 mmHg 92%
    20:00 +16°C° 0.4 mm 0 mps 627 mmHg 93%
    21:00 +16°C° 0.2 mm 0 mps 627 mmHg 93%
    22:00 +15°C° 0.2 mm 0 mps 627 mmHg 94%
    23:00 +16°C° 0.2 mm 1 mps 627 mmHg 94%

    16 December, Monday

    Time Temperature Precipitation Wind Pressure Humidity
    00:00 +16°C° 0.2 mm 1 mps 626 mmHg 95%
    01:00 +15°C° 0.2 mm 1 mps 626 mmHg 95%
    02:00 +15°C° 0.2 mm 1 mps 626 mmHg 95%
    03:00 +15°C° 0 mm 1 mps 626 mmHg 95%
    04:00 +14°C° 0 mm 0 mps 626 mmHg 95%
    05:00 +13°C° 0 mm 0 mps 626 mmHg 95%
    06:00 +15°C° 0 mm 0 mps 627 mmHg 93%
    07:00 +17°C° 0 mm 0 mps 628 mmHg 90%
    08:00 +18°C° 0 mm 0 mps 629 mmHg 87%
    09:00 +20°C° 0.4 mm 0 mps 629 mmHg 80%
    10:00 +22°C° 0.4 mm 0 mps 629 mmHg 72%
    11:00 +24°C° 0.4 mm 0 mps 629 mmHg 64%
    12:00 +26°C° 0.3 mm 1 mps 629 mmHg 66%
    13:00 +25°C° 0.3 mm 1 mps 628 mmHg 67%
    14:00 +25°C° 0.3 mm 1 mps 627 mmHg 69%
    15:00 +24°C° 1 mm 1 mps 627 mmHg 76%
    16:00 +23°C° 1 mm 1 mps 626 mmHg 82%
    17:00 +23°C° 1 mm 1 mps 626 mmHg 89%
    18:00 +19°C° 1.1 mm 0 mps 626 mmHg 89%
    19:00 +18°C° 1.1 mm 0 mps 626 mmHg 90%
    20:00 +17°C° 1.1 mm 0 mps 626 mmHg 90%
    21:00 +17°C° 0.6 mm 0 mps 627 mmHg 91%
    22:00 +17°C° 0.6 mm 0 mps 627 mmHg 92%
    23:00 +19°C° 0.6 mm 1 mps 627 mmHg 92%

    17 December, Tuesday

    Time Temperature Precipitation Wind Pressure Humidity
    00:00 +18°C° 0.7 mm 1 mps 627 mmHg 93%
    01:00 +18°C° 0.7 mm 1 mps 626 mmHg 94%
    02:00 +18°C° 0.7 mm 1 mps 626 mmHg 95%
    03:00 +16°C° 0.2 mm 1 mps 626 mmHg 95%
    04:00 +16°C° 0.2 mm 1 mps 626 mmHg 96%
    05:00 +16°C° 0.2 mm 1 mps 626 mmHg 96%
    06:00 +18°C° 0 mm 1 mps 627 mmHg 94%
    07:00 +17°C° 0 mm 0 mps 627 mmHg 92%
    08:00 +17°C° 0 mm 0 mps 628 mmHg 91%
    09:00 +19°C° 0.6 mm 0 mps 628 mmHg 86%
    10:00 +21°C° 0.6 mm 0 mps 628 mmHg 82%
    11:00 +22°C° 0.6 mm 0 mps 628 mmHg 78%
    12:00 +23°C° 0.6 mm 0 mps 628 mmHg 74%
    13:00 +25°C° 0.6 mm 1 mps 627 mmHg 69%
    14:00 +25°C° 0.6 mm 1 mps 627 mmHg 65%
    15:00 +25°C° 0.1 mm 1 mps 627 mmHg 70%
    16:00 +24°C° 0.1 mm 1 mps 626 mmHg 75%
    17:00 +24°C° 0.1 mm 1 mps 626 mmHg 80%
    18:00 +22°C° 1.4 mm 1 mps 626 mmHg 84%
    19:00 +20°C° 1.4 mm 1 mps 626 mmHg 89%
    20:00 +19°C° 1.4 mm 1 mps 626 mmHg 93%
    21:00 +16°C° 0.3 mm 0 mps 626 mmHg 93%
    22:00 +16°C° 0.3 mm 0 mps 626 mmHg 93%
    23:00 +15°C° 0.3 mm 0 mps 626 mmHg 93%
    Show more